This demonstration page uses our WeatherBlox Daily Observations layout. Learn more.

Left ArrowRight Arrow

39.51506, -84.39828

Hourly Observations for September 8, 2016

Temp ( °F °C ) Dew Point ( °F °C ) Humidity (%) Winds ( mph kmh ) Pressure ( in mb ) Visibility ( mi km ) Precip ( " mm )
12:15 am 00:15 Clear 74 23.6 68 20.1 81 81 N N/A 30.03 1017 10 16 N/A
12:35 am 00:35 Clear 74 23.6 67 19.5 78 78 N N/A 30.00 1016 10 16 N/A
12:55 am 00:55 Clear 74 23.6 67 19.3 77 77 S 6 9 30.00 1016 10 16 N/A
1:15 am 01:15 Clear 74 23.6 67 19.3 77 77 SSW 5 7 30.00 1016 10 16 N/A
1:35 am 01:35 Clear 74 23.6 67 19.5 78 78 SSW 5 7 30.00 1016 10 16 N/A
1:55 am 01:55 Clear 74 23.6 67 19.5 78 78 SW 3 6 30.00 1016 10 16 N/A
2:15 am 02:15 Clear 74 23.6 68 19.8 79 79 SSW 3 6 30.00 1016 10 16 N/A
2:35 am 02:35 Clear 74 23.6 68 19.8 79 79 WSW 3 6 30.00 1016 10 16 N/A
2:55 am 02:55 Clear 74 23.6 67 19.6 78 78 SW 3 6 30.00 1016 10 16 N/A
3:15 am 03:15 Clear 74 23.6 67 19.6 78 78 N N/A 30.00 1016 10 16 N/A
3:35 am 03:35 Clear 74 23.6 67 19.6 78 78 SSW 5 7 29.97 1015 10 16 N/A
3:55 am 03:55 Clear 74 23.6 67 19.5 78 78 SSW 6 9 29.97 1015 10 16 N/A
4:15 am 04:15 Clear 74 23.6 66 19 75 75 SSW 6 9 29.97 1015 10 16 N/A
4:35 am 04:35 Clear 74 23.6 67 19.2 76 76 SSW 6 9 29.97 1015 10 16 N/A
4:55 am 04:55 Clear 74 23.6 67 19.4 77 77 SW 6 9 29.97 1015 10 16 N/A
5:15 am 05:15 Clear 74 23.6 66 19.1 76 76 SSW 5 7 29.97 1015 10 16 N/A
5:35 am 05:35 Clear 74 23.6 67 19.2 76 76 SSW 6 9 29.97 1015 10 16 N/A
5:55 am 05:55 Clear 74 23.6 67 19.2 76 76 SSW 7 11 29.97 1015 10 16 N/A
6:15 am 06:15 Clear 74 23.6 66 19 75 75 SSW 6 9 29.97 1015 10 16 N/A
6:35 am 06:35 Clear 74 23.6 67 19.3 77 77 SSW 6 9 29.97 1015 10 16 N/A
6:55 am 06:55 Clear 74 23.6 67 19.2 76 76 SW 6 9 29.97 1015 10 16 N/A
7:15 am 07:15 Sunny 74 23.6 67 19.2 76 76 SSW 7 11 29.97 1015 10 16 N/A
7:35 am 07:35 Sunny 74 23.6 66 19 75 75 SSW 5 7 29.97 1015 10 16 N/A
7:55 am 07:55 Sunny 74 23.6 67 19.2 76 76 SSW 6 9 29.97 1015 10 16 N/A
8:15 am 08:15 Sunny 77 24.9 68 19.9 74 74 SSW 8 13 29.97 1015 10 16 N/A
8:35 am 08:35 Sunny 77 25.1 68 20 73 73 SSW 9 15 29.97 1015 10 16 N/A
8:55 am 08:55 Sunny 77 25.1 68 20 73 73 SSW 8 13 29.97 1015 10 16 N/A
9:15 am 09:15 Sunny 77 25.1 67 19.4 71 71 SSW 12 19 29.97 1015 10 16 N/A
9:35 am 09:35 Sunny 80 26.5 67 19.7 66 66 SSW 10 17 29.97 1015 10 16 N/A
9:55 am 09:55 Sunny 80 26.7 67 19.7 66 66 SSW 13 20 29.97 1015 10 16 N/A
10:15 am 10:15 Sunny 82 28 68 20.1 62 62 SW 10 17 29.94 1014 10 16 N/A
10:35 am 10:35 Sunny 82 28 68 19.9 61 61 SSW 15 24 29.94 1014 10 16 N/A
10:55 am 10:55 Sunny 81 27.2 67 19.6 63 63 SSW 14 22 29.97 1015 10 16 N/A
11:15 am 11:15 Sunny 82 28 68 20.1 62 62 SSW 12 19 29.94 1014 10 16 N/A
11:35 am 11:35 Sunny 83 28.1 68 20 61 61 SSW 10 17 29.94 1014 10 16 N/A
11:55 am 11:55 Sunny 85 29.3 69 20.4 59 59 SW 16 26 29.94 1014 10 16 N/A
12:15 pm 12:15 Sunny 89 31.4 71 21.9 57 57 SW 17 28 29.94 1014 10 16 N/A
12:35 pm 12:35 Sunny 90 32.1 73 22.6 57 57 SW 14 22 29.91 1013 10 16 N/A
12:55 pm 12:55 Sunny 90 32.1 71 21.9 55 55 SW 18 30 29.91 1013 10 16 N/A
1:15 pm 13:15 Sunny 90 32.1 72 22 55 55 SW 16 26 29.91 1013 10 16 N/A
1:35 pm 13:35 Sunny 90 32.1 71 21.6 54 54 SW 14 22 29.91 1013 10 16 N/A
1:55 pm 13:55 Sunny 90 32.1 71 21.7 54 54 SW 12 19 29.91 1013 10 16 N/A
2:15 pm 14:15 Sunny 90 32.1 70 21 52 52 WSW 13 20 29.91 1013 10 16 N/A
2:35 pm 14:35 Partly Cloudy 90 32.1 70 21.1 52 52 SSW 10 17 29.91 1013 10 16 N/A
2:55 pm 14:55 Partly Cloudy 91 32.6 68 20 47 47 SSW 17 28 29.88 1012 10 16 N/A
3:15 pm 15:15 Partly Cloudy 90 32.1 69 20.4 50 50 WSW 12 19 29.88 1012 10 16 N/A
3:35 pm 15:35 Sunny 90 32.1 67 19.7 48 48 SW 15 24 29.88 1012 10 16 N/A
3:55 pm 15:55 Sunny 90 32.1 67 19.7 48 48 SSW 15 24 29.88 1012 10 16 N/A
4:15 pm 16:15 Partly Cloudy 90 32.1 67 19.3 47 47 SW 10 17 29.85 1011 10 16 N/A
4:35 pm 16:35 Partly Cloudy 90 32.2 67 19.5 47 47 SSW 15 24 29.85 1011 10 16 N/A
4:55 pm 16:55 Partly Cloudy 90 32.1 68 19.9 48 48 SSW 15 24 29.85 1011 10 16 N/A
5:15 pm 17:15 Partly Cloudy 90 32.1 65 18.5 44 44 SSW 16 26 29.85 1011 10 16 N/A
5:35 pm 17:35 Sunny 90 32.1 66 18.9 46 46 SW 15 24 29.85 1011 10 16 N/A
5:55 pm 17:55 Sunny 90 32.1 68 20.1 49 49 SW 15 24 29.85 1011 10 16 N/A
6:15 pm 18:15 Sunny 90 32.1 67 19.6 48 48 SW 12 19 29.85 1011 10 16 N/A
6:35 pm 18:35 Mostly Cloudy with Light Rain 82 27.8 65 18.2 56 56 W 15 24 29.91 1013 10 16 N/A
6:55 pm 18:55 Cloudy with Light Rain 74 23.6 67 19.6 78 78 W 10 17 29.94 1014 7 11 N/A
7:15 pm 19:15 Cloudy with Rain 74 23.6 68 20.1 81 81 W 13 20 29.94 1014 5 8 N/A
7:35 pm 19:35 Cloudy with Rain 74 23.6 69 20.5 83 83 SSW 7 11 29.94 1014 3 5 N/A
7:55 pm 19:55 Cloudy with Light Rain 74 23.6 69 20.5 83 83 SW 6 9 29.91 1013 10 16 N/A
8:15 pm 20:15 Cloudy with Light Rain 74 23.6 68 20.2 81 81 N N/A 29.91 1013 10 16 N/A
8:35 pm 20:35 Cloudy 74 23.6 68 20.2 81 81 N N/A 29.91 1013 10 16 N/A
8:55 pm 20:55 Cloudy 74 23.6 68 20.2 81 81 SSW 3 6 29.91 1013 10 16 N/A
9:35 pm 21:35 Cloudy 76 24.2 69 20.7 81 81 N N/A 29.91 1013 10 16 N/A
9:55 pm 21:55 Cloudy with Rain 74 23.6 69 20.5 83 83 N N/A 29.94 1014 5 8 N/A
10:15 pm 22:15 Cloudy with Heavy Rain 74 23.6 69 20.5 83 83 S 6 9 29.94 1014 3 5 N/A
10:35 pm 22:35 Cloudy with Rain 74 23.6 69 20.5 83 83 WSW 5 7 29.94 1014 4 6 N/A
10:55 pm 22:55 Cloudy with Heavy Rain 74 23.6 69 20.6 83 83 SSW 8 13 29.97 1015 5 8 N/A
11:15 pm 23:15 Cloudy with Heavy Rain 74 23.6 69 20.6 83 83 SW 10 17 29.97 1015 7 11 N/A
11:35 pm 23:35 Cloudy with Rain 74 23.6 69 20.6 83 83 SSW 7 11 30.00 1016 7 11 N/A
11:55 pm 23:55 Cloudy with Heavy Rain 74 23.6 69 20.6 83 83 SSW 8 13 30.00 1016 5 8 N/A

Powered by AerisWeather